Regional Weather Roundup
Issued by NWS Albany, NY

Home | Current Version | Previous Version | Text Only | Print | Product List | Glossary On
Versions: 1 2 3 4 5 6 7 8 9 10 11 12 13 14 15 16 17 18 19 20 21 22 23 24 25 26 27 28 29 30 31 32 33 34 35 36 37 38 39 40 41 42 43 44 45 46 47 48 49 50
000
ASUS41 KALY 011410
RWRALY

NEW YORK STATE HOURLY WEATHER ROUNDUP
NATIONAL WEATHER SERVICE ALBANY NY
1000 AM EDT FRI AUG 01 2014

NOTE: "FAIR" INDICATES FEW OR NO CLOUDS BELOW 12,000 FEET WITH NO
SIGNIFICANT WEATHER AND/OR NO OBSTRUCTIONS TO VISIBILITY.

NYZ032-033-038>043-046>054-057>066-NYZ062>081-011500-
EAST


CITY           SKY/WX    TMP DP  RH WIND       PRES   REMARKS
ALBANY         PTSUNNY   72  64  76 S9        30.19F
GLENS FALLS    MOSUNNY   69  62  78 S9        30.19S
POUGHKEEPSIE   SUNNY     76  66  71 S5        30.18F
NEWBURGH       SUNNY     73  68  83 CALM      30.21F
MONTGOMERY     MOSUNNY   72  64  76 SW6       30.20S
WHITE PLAINS   MOSUNNY   76  67  73 CALM      30.19F
ISLIP          PTSUNNY   79  68  69 S3        30.19S
NEW YORK CITY  PTSUNNY   80  67  64 VRB3      30.18S
CENTRAL PARK   MOSUNNY   77  66  68 NW3       30.21F
$$

NYZ005>009-017-018-044>046-055-056-011500-
CENTRAL


CITY           SKY/WX    TMP DP  RH WIND       PRES   REMARKS
FULTON         PTSUNNY   70  62  76 S6        30.14F
SYRACUSE       CLOUDY    71  63  75 CALM      30.15F
ROME           MOSUNNY   70  63  78 VRB6      30.17F
ELMIRA         MOSUNNY   66  60  81 CALM      30.18S
BINGHAMTON     MOSUNNY   70  60  70 W7        30.21S
MONTICELLO     PTSUNNY   72  64  78 CALM      30.24R
$$

NYZ026>034-041>043-011500-
NORTH


CITY           SKY/WX    TMP DP  RH WIND       PRES   REMARKS
WATERTOWN      SUNNY     72  57  59 SW9       30.13F
FORT DRUM      NOT AVBL
MASSENA        PTSUNNY   67  61  81 S3        30.14R
SARANAC LAKE   MOSUNNY   68  57  68 SW12      30.17F
PLATTSBURGH    SUNNY     69  61  75 E6        30.15F
$$

NYZ001>004-010>016-019>021-011500-
WEST


CITY           SKY/WX    TMP DP  RH WIND       PRES   REMARKS
NIAGARA FALLS  MOSUNNY   73  65  75 SW14      30.11F
BUFFALO        MOSUNNY   73  60  63 SW13      30.13S
DUNKIRK        SUNNY     73  61  65 S7        30.14S
JAMESTOWN      SUNNY     66  61  82 SW3       30.18S
WELLSVILLE     SUNNY     72  59  63 SW8       30.22S
ROCHESTER      SUNNY     71  61  70 SW9       30.13F
PENN YAN       MOSUNNY   71  62  73 S9        30.16F
$$

             KEY
       WCI = WIND CHILL INDEX
       VSB = VISIBILITY
       HX  = HEAT INDEX
$$


USA.gov is the U.S. government's official web portal to all federal, state and local government web resources and services.